TimeEDT,TemperatureF,Dew PointF,Humidity,Sea Level PressureIn,VisibilityMPH,Wind Direction,Wind SpeedMPH,Gust SpeedMPH,PrecipitationIn,Events,Conditions,WindDirDegrees,DateUTC
12:51 AM,54.0,39.0,57,29.78,10.0,WSW,4.6,-,0.00,,Scattered Clouds,250,2011-10-15 04:51:00
1:51 AM,52.0,39.9,63,29.79,10.0,SW,3.5,-,N/A,,Clear,220,2011-10-15 05:51:00
2:51 AM,53.1,39.0,59,29.81,10.0,WSW,8.1,-,N/A,,Clear,240,2011-10-15 06:51:00
3:51 AM,52.0,39.0,61,29.82,10.0,WSW,9.2,-,N/A,,Clear,240,2011-10-15 07:51:00
4:51 AM,51.1,39.0,63,29.84,10.0,WSW,10.4,-,N/A,,Clear,240,2011-10-15 08:51:00
5:51 AM,51.1,39.0,63,29.85,10.0,WSW,9.2,-,N/A,,Clear,240,2011-10-15 09:51:00
6:51 AM,50.0,37.9,63,29.87,10.0,WSW,10.4,-,N/A,,Clear,240,2011-10-15 10:51:00
7:51 AM,50.0,37.9,63,29.88,10.0,SW,9.2,-,N/A,,Clear,230,2011-10-15 11:51:00
8:51 AM,53.6,39.2,58,29.90,10.0,WSW,12.7,23.0,N/A,,Clear,240,2011-10-15 12:51:00
9:51 AM,55.9,39.0,53,29.91,10.0,WSW,15.0,26.5,N/A,,Clear,250,2011-10-15 13:51:00
10:51 AM,57.9,37.9,47,29.92,10.0,WSW,13.8,28.8,N/A,,Clear,250,2011-10-15 14:51:00
11:51 AM,60.1,37.9,44,29.93,10.0,West,11.5,24.2,N/A,,Clear,260,2011-10-15 15:51:00
12:51 PM,62.1,37.0,39,29.93,10.0,WSW,15.0,24.2,N/A,,Clear,250,2011-10-15 16:51:00
1:51 PM,64.9,39.0,39,29.92,10.0,West,12.7,21.9,N/A,,Clear,260,2011-10-15 17:51:00
2:51 PM,64.9,34.0,32,29.91,10.0,WSW,17.3,25.3,N/A,,Clear,250,2011-10-15 18:51:00
3:51 PM,64.4,33.8,32,29.93,10.0,West,16.1,23.0,N/A,,Clear,260,2011-10-15 19:51:00
4:51 PM,64.0,34.0,33,29.92,10.0,West,12.7,25.3,N/A,,Clear,260,2011-10-15 20:51:00
5:51 PM,63.0,34.0,34,29.93,10.0,West,11.5,20.7,N/A,,Clear,260,2011-10-15 21:51:00
6:51 PM,60.1,34.0,38,29.95,10.0,WSW,10.4,-,N/A,,Clear,250,2011-10-15 22:51:00
7:51 PM,57.9,35.1,42,29.97,10.0,WSW,9.2,-,N/A,,Clear,240,2011-10-15 23:51:00
8:51 PM,57.0,36.0,45,29.99,10.0,WSW,9.2,-,N/A,,Clear,240,2011-10-16 00:51:00
9:51 PM,55.9,37.0,49,30.00,10.0,WSW,8.1,-,N/A,,Clear,240,2011-10-16 01:51:00
10:51 PM,55.0,37.9,53,30.01,10.0,SW,9.2,-,N/A,,Clear,230,2011-10-16 02:51:00
11:51 PM,54.0,37.9,55,30.02,10.0,SW,6.9,-,N/A,,Clear,230,2011-10-16 03:51:00